Location: Neuvy Saint Sepulchre
(46.5953°N, 1.8122°E)
Time: 14:23:33
(UTC+02:00)

ISS - Pass Details

Date: 19 September 2022
Orbit: 414 x 417 km, 51.6° (Epoch: 01 October)

Event Time Altitude Azimuth Distance (km) Brightness Sun altitude
Rises 20:30:36 0° 234° (SW) 2,353 0.8 -6.6°
Reaches altitude 10° 20:32:42 10° 232° (SW) 1,493 -0.3 -7.0°
Maximum altitude 20:36:01 67° 150° (SSE) 459 -3.7 -7.5°
Drops below altitude 10° 20:39:22 10° 67° (ENE) 1,502 -1.4 -8.1°
Enters shadow 20:39:54 - 66° (ENE) 1,714 -1.2 -8.2°
